Regional Weather Roundup
Issued by NWS

Home | Current Version | Previous Version | Graphics & Text | Print | Product List | Glossary On
Versions: 1 2 3 4 5 6 7 8 9 10 11 12 13 14 15 16 17 18 19 20 21 22 23 24 25 26 27 28 29 30 31 32 33 34 35 36 37 38 39 40 41 42 43 44 45 46 47 48 49 50
000
ASUS45 KBOU 270407
RWRCO

WEATHER ROUNDUP FOR COLORADO
NATIONAL WEATHER SERVICE DENVER/BOULDER CO
1000 PM MDT SAT JUL 26 2014

NOTE: "FAIR" INDICATES FEW OR NO CLOUDS BELOW 12000 FEET WITH NO
SIGNIFICANT WEATHER AND/OR OBSTRUCTIONS TO VISIBILITY.

COZ001>005-013-030-031-270500-
...NORTHWEST COLORADO...

CITY           SKY/WX    TMP DP  RH WIND       PRES   REMARKS
CRAIG          PTCLDY    58  51  78 E9        30.31R
HAYDEN         PTCLDY    63  48  59 E10       30.34R
MEEKER         MOCLDY    65  52  62 CALM      30.33R
MOUNT WERNER   NOT AVBL
STEAMBOAT SPGS PTCLDY    59  51  74 CALM      30.39R
WALDEN         CLEAR     52  43  71 SE7       30.46R
$$

COZ006>008-011-270500-
...WEST CENTRAL VALLEYS...

CITY           SKY/WX    TMP DP  RH WIND       PRES   REMARKS
GRAND JUNCTION MOCLDY    78  50  37 N13G21    30.17R
MONTROSE       MOCLDY    80  47  31 S6        30.24R
EAGLE          MOCLDY    61  59  94 CALM      30.43S
RIFLE          CLOUDY    69  55  60 VRB3      30.29R
DELTA          MOCLDY    83  47  28 E10       30.19R
NUCLA          MOCLDY    81  43  26 E8        30.26R
$$

COZ017>023-064>068-270500-
...SOUTHWEST COLORADO...

CITY           SKY/WX    TMP DP  RH WIND       PRES   REMARKS
DURANGO        PTCLDY    77  41  27 CALM      30.26R
CORTEZ         CLEAR     73  46  38 CALM      30.21R
PAGOSA SPRINGS MOCLDY    72  42  34 N9G17     30.39R
TELLURIDE      PTCLDY    64  46  52 SE7       30.50R
WOLF CREEK PAS NOT AVBL
$$

COZ009-010-012-014-032>034-037-058>063-270500-
...CENTRAL COLORADO...

CITY           SKY/WX    TMP DP  RH WIND       PRES   REMARKS
ASPEN          MOCLDY    63  48  58 SE5       30.47S
BUENA VISTA    MOCLDY    57  51  81 S3        30.52R
COPPER MTN     MOCLDY    52  39  62 W6        30.79F
BERTHOUD PASS  MOCLDY    43  30  61 W7        30.81F
COTTONWOOD PAS MOCLDY    61  45  55 E3        30.66R
GUNNISON       MOCLDY    64  50  59 E13       30.48R
KREMMLING      MOCLDY    59  46  63 CALM      30.46S
LEADVILLE      MOCLDY    52  45  77 NE3       30.64S
MONARCH PASS   CLOUDY    46  45  93 E18       30.87F
SALIDA         MOCLDY   N/A N/A N/A CALM      30.56F
SUNLIGHT       CLOUDY    52  46  82 E3        30.69R
WILKERSON PASS NOT AVBL
$$

COZ069>075-270500-
...SAN LUIS VALLEY/SANGRE DE CRISTO MOUNTAINS...

CITY           SKY/WX    TMP DP  RH WIND       PRES   REMARKS
ALAMOSA        CLOUDY    64  55  72 W3        30.41R
LA VETA PASS   MOCLDY    54  45  71 E13       30.64R
SAGUACHE       CLOUDY    64  50  59 NW15G21   30.46R
$$

COZ035-036-038>040-270500-
...NORTHERN COLORADO FRONT RANGE...

CITY           SKY/WX    TMP DP  RH WIND       PRES   REMARKS
DENVER INTL AP CLOUDY    72  54  53 S24       30.22F
DMNS CITY PARK   N/A     71  53  51 S10G22    30.24S
AURORA         CLOUDY    69  55  60 SW20      30.27F
FRONT RANGE AP NOT AVBL
ERIE MUNI ARPT CLOUDY    71  54  54 S7        30.20S
BOULDER MUN AP CLOUDY    72  52  49 SW5       30.21
CENTENNIAL     CLOUDY    67  53  61 SW17      30.30F
BROOMFIELD     MOCLDY    73  54  49 S10G16    30.26F
FORT COLLINS   MOCLDY    72  52  49 SW8       30.19S
LONGMONT       MOCLDY    72  55  55 SW6       30.20F
$$

COZ041-046-047-076>085-087-088-270500-
...PIKES PEAK/PALMER DIVIDE AND SOUTHERN FOOTHILLS...

CITY           SKY/WX    TMP DP  RH WIND       PRES   REMARKS
COLO. SPRINGS  CLOUDY    68  52  56 N14       30.36S
A. F. ACADEMY  CLOUDY    61  58  92 N8        30.39F
ELLICOTT       CLOUDY    68  51  54 N13G23    30.35R
FALCON         LGT RAIN  61  54  77 NW9G16    30.42S
FORT CARSON    CLOUDY    72  52  48 N20G28    30.32R
LIMON          CLOUDY    73  50  44 NW14      30.27R
MONUMENT HILL  CLOUDY    57  54  88 S10       30.41F
TRINIDAD       CLOUDY    72  57  59 N5        30.29R
$$

COZ042>045-048>051-090-091-270500-
...NORTHEAST COLORADO...

CITY           SKY/WX    TMP DP  RH WIND       PRES   REMARKS
GREELEY ARPT   MOCLDY    64  54  68 CALM      30.19R
AKRON          CLOUDY    73  64  73 SE14      30.21R
BURLINGTON     MOCLDY    75  61  61 NE7       30.17R
WRAY             N/A     74  64  70 NE7       30.15R
STERLING       CLOUDY    77  66  69 E5        30.16R
HOLYOKE        CLEAR     73  68  83 E7        30.15R
FORT MORGAN    CLOUDY    69  55  61 E6        30.19R
$$

COZ086-089-092>099-270500-
...SOUTHEAST COLORADO...

CITY           SKY/WX    TMP DP  RH WIND       PRES   REMARKS
PUEBLO         CLOUDY    75  58  55 N12       30.24R
LA JUNTA       CLOUDY    77  60  55 SE6       30.19S
LAMAR          CLOUDY    87  52  29 NW24G31   30.09R
SPRINGFIELD      N/A     70  59  68 NW35G53   30.17R
$$


USA.gov is the U.S. government's official web portal to all federal, state and local government web resources and services.